Location: Central Falls
(41.8900°N, 71.3929°W)
Time: 13:46:48
(UTC+00:00)

Altair - Visible Passes

Search period start: 03 December 2023 00:00
Search period end: 13 December 2023 00:00
Orbit: 1501 x 1682 km, 47.2° (Epoch: 02 December)

Date Brightness Start Highest point End Pass type
(mag) Time Alt. Az. Time Alt. Az. Time Alt. Az.
03 Dec 10.5 22:17:18 10° WSW 22:19:27 11° WSW 22:21:36 10° SW visible
04 Dec 9.6 11:24:12 10° S 11:32:26 31° SE 11:40:24 10° ENE visible
04 Dec 10.4 21:50:51 10° W 21:54:26 13° WSW 21:58:02 10° SSW visible
05 Dec 9.6 10:59:21 10° S 11:07:19 29° SE 11:15:03 10° ENE visible
06 Dec 9.6 10:34:34 10° S 10:42:14 26° SE 10:49:41 10° ENE visible
07 Dec 9.7 10:09:49 10° S 10:17:08 24° SE 10:24:15 10° E visible
08 Dec 9.7 09:45:09 10° S 09:52:02 22° SE 09:58:46 10° E visible
09 Dec 9.7 09:20:32 10° SSE 09:26:57 19° SE 09:33:14 10° E visible
09 Dec 8.2 11:20:42 10° SW 11:30:23 62° SE 11:39:43 10° ENE visible
10 Dec 9.8 08:56:02 10° SSE 09:01:53 17° SE 09:07:37 10° E visible
10 Dec 8.2 10:55:34 10° SW 11:05:12 58° SE 11:14:30 10° ENE visible
11 Dec 9.8 08:31:40 10° SSE 08:36:49 15° SE 08:41:53 10° E visible
11 Dec 8.3 10:30:28 10° SW 10:40:02 55° SE 10:49:16 10° ENE visible
12 Dec 9.8 08:07:29 10° SSE 08:11:45 14° ESE 08:15:58 10° E visible
12 Dec 8.3 10:05:24 10° SSW 10:14:53 51° SE 10:24:02 10° ENE visible
